SCP
0 0 0 0 0 0 0 0 0 0 0 0 0 0 0 0 1 1 1 1 1 1 1 1 1 1 1 1 1 1 1 1 0 0 0 0 0 0 0 0 0 0 0 0
0 0 0 0 0 0 0 0 0 0 0 0 0 0 0 0 0 1 1 1 1 1 1 1 1 1 1 1 1 1 1 0 0 0 0 0 0 0 0 0 0 0 0 0
0 0 0 0 0 0 0 0 0 0 0 0 0 0 0 0 0 0 1 1 1 1 1 1 1 1 1 1 1 1 1 0 0 0 0 0 0 0 0 0 0 0 0 0
0 0 0 0 0 0 0 0 0 0 0 0 0 0 0 0 0 0 1 1 1 1 1 1 1 1 1 1 1 1 0 0 0 0 0 0 0 0 0 0 0 0 0 0
0 0 0 0 0 0 0 0 0 0 0 0 0 0 0 0 0 0 0 1 1 1 1 1 1 1 1 1 1 0 0 0 0 0 0 0 0 0 0 0 0 0 0 0
-0 0 0 0 0 0 0 0 0 0 0 0 0 0 0 0 0 0 0 1 1 1 1 1 1 1 1 1 1 0 0 0 0 0 0 0 0 0 0 0 0 0 0 0
0 0 0 0 0 0 0 0 0 0 0 0 0 0 0 0 0 0 0 1 1 1 1 1 1 1 1 1 0 0 0 0 0 0 0 0 0 0 0 0 0 0 0 0
0 0 0 0 0 0 0 0 0 0 0 0 0 0 0 0 0 0 0 1 1 1 1 1 1 1 1 0 0 0 0 0 0 0 0 0 0 0 0 0 0 0 0 0
0 0 0 0 0 0 0 0 0 0 0 0 0 0 0 0 0 0 0 1 1 1 1 1 1 1 0 0 0 0 0 0 0 0 0 0 0 0 0 0 0 0 0 0
0 0 0 0 0 0 0 0 0 0 0 0 0 0 0 0 0 0 0 1 1 1 1 1 1 1 1 0 0 0 0 0 0 0 0 0 0 0 0 0 0 0 0 0
0 0 0 0 0 0 0 0 0 0 0 0 0 0 0 0 0 0 0 1 1 1 1 1 1 1 1 0 0 0 0 0 0 0 0 0 0 0 0 0 0 0 0 0
0 0 0 0 0 0 0 0 0 0 0 0 0 0 0 0 0 0 0 0 1 1 1 1 1 1 1 1 0 0 0 0 0 0 0 0 0 0 0 0 0 0 0 0
0 0 0 0 0 0 0 0 0 0 0 0 0 0 0 0 0 0 0 0 0 0 0 0 0 0 0 0 0 0 0 0 0 0 0 0 0 0 0 0 0 0 0 0
0 0 0 0 0 0 0 0 0 0 0 0 0 0 0 0 0 0 0 0 0 0 0 0 0 0 0 0 0 0 0 0 0 0 0 0 0 0 0 0 0 0 0 0
0 0 0 0 0 0 0 0 0 0 0 0 0 0 0 0 0 0 0 0 0 0 0 0 0 0 0 0 0 0 0 0 0 0 0 0 0 0 0 0 0 0 0 0
0 0 0 0 0 0 0 0 0 0 0 0 0 0 0 0 0 0 0 0 0 0 0 0 0 0 0 0 0 0 0 0 0 0 0 0 0 0 0 0 0 0 0 0
0 0 0 0 0 0 0 0 0 0 0 0 0 0 0 0 0 0 0 0 0 0 0 0 0 0 0 0 0 0 0 0 0 0 0 0 0 0 0 0 0 0 0 0
0 0 0 0 0 0 0 0 0 0 0 0 0 0 0 0 0 0 0 0 0 0 0 0 0 0 0 0 0 0 0 0 0 0 0 0 0 0 0 0 0 0 0 0
0 0 0 0 0 0 0 0 0 0 0 0 0 0 0 0 0 0 0 0 0 0 0 0 0 0 0 0 0 0 0 0 0 0 0 0 0 0 0 0 0 0 0 0
0 0 0 0 0 0 0 0 0 0 0 0 0 0 0 0 0 0 0 0 0 0 0 0 0 0 0 0 0 0 0 0 0 0 0 0 0 0 0 0 0 0 0 0
0 0 0 0 0 0 0 0 0 0 0 0 0 0 0 0 0 0 0 0 0 0 0 0 0 0 0 0 0 0 0 0 0 0 0 0 0 0 0 0 0 0 0 0
0 0 0 0 0 0 0 0 0 0 0 0 0 0 0 0 0 0 0 0 0 0 0 0 0 0 0 0 0 0 0 0 0 0 0 0 0 0 0 0 0 0 0 0
0 0 0 0 0 0 0 0 0 0 0 0 0 0 0 0 0 0 0 0 0 0 0 0 0 0 0 0 0 0 0 0 0 0 0 0 0 0 0 0 0 0 0 0
0 0 0 0 0 0 0 0 0 0 0 0 0 0 0 0 0 0 0 0 0 0 0 0 0 0 0 0 0 0 0 0 0 0 0 0 0 0 0 0 0 0 0 0
0 0 0 0 0 0 -0 -0 -0 0 0 0 0 0 0 0 0 0 0 0 0 0 0 0 0 0 0 0 0 0 0 0 0 0 0 0 0 0 0 0 0 0 0 0
0 0 0 0 0 0 -0 -0 -0 0 0 0 0 0 0 0 0 0 0 0 0 0 0 0 0 0 0 0 0 0 0 0 0 0 0 0 0 0 0 0 0 0 0 0
Wind_Speed
1 3 3 6 5 6 3 1 3 6 5 1 2 3 6 8 7 8 9 9 8 7 5 6 7 7 7 6 6 6 6 4 4 3 2 2 1 1 1 0 0 0 0 0
4 4 10 6 3 2 1 1 3 4 2 1 2 3 5 7 9 10 10 9 9 7 6 6 7 6 6 6 5 5 5 4 3 2 2 2 2 1 1 1 1 1 1 1
5 8 4 3 3 2 2 3 4 3 2 2 2 2 1 3 4 4 5 7 9 11 10 9 8 7 7 7 5 4 4 4 3 3 2 2 2 2 1 1 1 1 1 1
4 5 2 2 3 3 4 5 5 2 2 2 2 1 5 2 2 3 5 6 8 9 9 8 8 8 8 7 6 5 4 3 3 3 3 3 2 1 1 1 1 1 1 1
5 4 2 4 6 5 6 4 2 1 2 2 2 2 5 0 1 4 6 7 8 9 10 10 10 9 8 7 6 5 4 3 3 3 3 3 2 1 0 0 0 1 1 1
6 4 3 5 4 3 2 4 4 5 4 1 3 3 5 3 5 4 6 7 8 9 9 9 9 8 7 6 6 5 5 3 3 3 3 3 3 3 2 0 0 1 1 1
6 6 4 1 2 4 4 6 4 5 4 5 3 2 6 5 5 5 6 8 7 8 8 9 9 8 7 7 6 5 5 4 3 3 3 3 3 4 3 2 2 2 1 1
2 6 4 2 2 3 2 7 6 4 4 4 2 2 5 3 2 2 4 6 7 7 8 9 9 8 8 7 6 6 5 4 4 4 3 3 3 2 2 2 2 2 2 3
1 5 6 4 1 3 1 1 5 6 1 1 2 2 3 0 1 1 3 5 5 6 8 9 8 7 7 7 6 7 6 4 3 4 4 3 3 2 2 2 2 2 2 2
2 2 5 5 5 5 3 4 5 4 1 2 4 3 4 5 4 3 4 5 5 5 6 7 7 7 6 5 5 5 5 5 4 4 3 3 3 2 2 2 1 1 2 2
2 1 5 5 3 2 3 3 3 2 3 3 3 6 5 7 7 7 6 7 8 8 7 7 6 6 6 5 5 4 4 3 3 3 3 2 2 2 1 1 1 2 2 2
1 4 2 5 5 2 2 2 4 3 2 3 3 7 5 4 5 6 6 6 6 7 7 6 6 6 5 5 4 4 4 3 3 3 2 2 2 1 1 1 1 1 2 2
2 4 3 8 8 6 3 0 2 3 2 2 2 7 3 1 1 3 5 6 5 6 7 6 6 6 5 5 5 4 4 4 3 3 3 2 1 1 1 1 1 1 1 1
4 2 4 5 7 4 4 5 2 1 2 3 5 6 3 2 2 2 4 6 6 7 7 7 6 5 5 5 5 4 4 4 4 3 3 2 2 2 2 1 1 1 1 1
5 1 3 5 6 4 5 5 4 3 4 5 6 6 6 6 6 5 5 6 7 7 7 7 6 5 5 4 4 4 4 3 4 3 3 3 3 2 2 1 1 1 1 1
3 1 3 5 5 4 6 6 4 3 3 3 2 3 4 3 4 4 6 8 8 8 8 8 7 6 6 6 5 4 4 3 4 4 3 3 2 2 2 1 1 1 1 1
1 1 1 4 6 4 5 4 3 2 2 3 4 4 2 3 5 6 7 7 8 8 8 9 9 8 7 6 6 6 5 4 3 3 3 3 3 2 2 1 1 1 1 1
5 2 2 3 2 4 7 4 1 1 1 1 1 1 2 4 4 4 5 6 6 6 7 8 7 7 6 5 5 5 4 4 4 3 2 3 3 3 2 1 1 1 1 1
6 6 3 2 2 5 5 4 1 1 1 1 3 2 2 3 4 1 2 4 6 6 6 7 7 7 6 6 6 5 4 4 3 3 3 3 3 3 2 2 2 1 1 1
4 3 3 2 2 4 5 5 3 2 2 2 2 3 2 3 1 4 3 2 3 3 5 6 7 6 7 6 6 6 5 4 4 3 3 3 3 3 3 3 2 1 1 2
4 3 1 3 4 5 4 6 4 2 5 3 1 2 3 3 4 4 3 2 3 2 4 7 8 7 7 6 7 6 5 4 4 3 2 2 3 3 3 2 2 1 1 1
2 2 1 0 2 6 5 5 2 3 2 0 1 1 2 1 1 2 4 3 4 4 3 6 6 6 6 6 7 6 5 4 3 3 3 3 3 2 2 2 1 1 1 1
3 4 3 3 6 6 4 1 2 1 0 1 1 1 2 3 2 2 3 3 3 4 4 4 6 6 5 6 7 7 5 4 3 3 3 2 2 2 2 2 2 1 1 1
3 1 1 3 5 6 5 3 2 0 0 1 1 1 2 2 3 2 3 3 3 3 4 3 5 6 5 5 6 6 5 4 4 3 3 2 2 1 1 1 2 2 2 2
5 2 2 6 7 5 5 3 2 2 2 1 1 1 2 3 3 3 3 4 4 4 3 4 4 5 6 5 5 5 5 5 4 3 3 2 2 2 2 2 2 3 4 4
6 6 6 9 7 5 8 6 3 1 1 1 1 2 1 3 4 3 3 4 4 5 4 4 3 4 5 5 5 4 5 5 5 3 2 2 2 2 2 2 3 5 6 7
Wind_Direction
340 68 251 239 213 200 199 213 263 261 244 147 170 182 186 175 175 178 177 172 172 173 163 148 143 140 132 127 127 129 130 133 124 115 115 111 110 96 63 59 91 137 282 354
19 263 242 231 237 238 206 263 291 298 282 137 175 204 201 184 185 185 175 175 174 159 149 147 140 140 140 138 136 138 136 132 127 133 139 140 135 130 105 22 4 334 343 345
210 246 245 220 260 270 271 208 230 248 338 46 103 354 267 208 186 177 171 167 172 168 165 160 153 153 148 143 144 142 136 131 131 131 111 95 78 58 38 7 340 326 349 14
252 260 266 236 243 201 259 236 218 208 79 313 94 257 278 235 189 188 184 174 175 173 166 163 160 159 155 150 144 139 139 139 142 136 132 136 141 152 208 216 248 305 348 359
257 251 239 239 232 205 229 234 223 141 120 29 358 123 277 277 198 211 201 185 178 179 174 172 166 162 156 149 146 148 143 146 145 144 147 144 138 153 187 263 332 327 324 310
251 264 228 233 251 204 176 52 25 45 73 6 247 169 264 239 221 201 192 182 173 177 178 168 155 149 149 146 145 145 145 156 156 152 148 152 154 154 147 183 253 286 290 299
318 308 292 264 7 349 65 81 31 1 5 255 251 164 243 241 228 194 177 172 172 169 163 158 156 157 156 156 157 157 155 167 173 169 171 176 174 171 179 198 214 226 246 260
333 300 292 306 186 210 200 134 154 198 230 272 326 221 260 251 237 189 153 152 148 152 157 157 161 164 162 165 166 168 173 181 184 185 192 191 181 180 199 207 210 219 233 241
186 276 303 304 293 152 129 180 169 142 167 302 284 269 293 319 96 106 115 127 143 152 152 160 161 161 165 169 176 179 179 182 187 194 193 190 187 189 203 216 217 230 246 248
163 277 312 329 13 19 120 141 76 87 124 284 287 251 234 213 198 179 161 158 160 150 146 152 154 156 160 168 176 179 180 183 189 194 195 189 189 196 207 202 206 216 242 250
105 127 320 355 12 330 19 48 87 112 156 170 255 267 241 202 190 182 181 168 160 158 157 157 157 155 157 159 163 165 173 179 187 186 182 168 183 186 177 185 211 222 238 242
18 106 302 287 285 282 122 138 127 135 257 192 206 264 284 192 181 173 165 164 161 157 151 145 146 146 154 161 164 170 173 174 183 176 163 163 173 170 175 200 231 230 243 253
18 81 15 340 339 352 11 5 119 133 134 182 203 264 316 78 117 165 159 156 150 142 133 135 144 155 164 168 172 178 179 176 178 164 154 159 171 178 206 224 233 235 234 256
47 104 170 216 242 265 290 301 304 105 175 226 224 237 262 222 195 195 162 153 149 144 145 150 157 167 172 175 176 178 181 177 168 156 154 170 193 202 215 220 221 226 218 229
54 305 260 265 270 289 295 296 301 277 218 211 233 223 227 204 191 187 167 155 147 150 157 166 171 174 175 176 179 176 173 170 165 162 168 191 206 204 189 196 225 231 230 233
34 286 317 302 291 305 300 287 279 268 239 225 220 255 232 195 158 158 161 160 160 168 172 174 176 179 180 180 178 168 168 171 160 166 183 195 194 181 183 197 217 212 254 269
258 179 346 284 298 327 288 259 235 234 229 185 211 237 207 156 163 172 170 170 175 180 179 179 182 187 184 179 169 168 173 164 157 165 180 190 185 183 189 190 171 228 244 220
198 188 188 250 319 256 251 254 226 170 258 102 105 126 173 184 176 169 161 168 183 186 186 185 183 182 177 167 160 162 160 161 164 172 180 184 184 191 190 176 206 239 251 251
187 170 178 191 234 269 292 309 302 252 269 95 115 108 63 66 71 61 183 169 186 192 191 186 178 169 163 163 162 154 158 164 170 183 195 198 188 188 189 199 229 242 246 269
45 117 151 184 214 249 267 312 321 62 295 334 110 132 130 83 99 246 217 170 178 180 175 167 157 149 156 165 157 152 164 170 188 195 198 195 184 184 194 208 224 232 224 252
345 344 200 221 237 260 297 328 14 63 266 297 98 148 167 194 218 219 171 160 150 147 158 154 150 155 166 164 154 157 167 189 201 191 183 186 187 192 196 200 215 224 244 295
260 276 288 269 249 261 323 7 39 257 288 53 104 153 172 194 115 128 142 140 131 129 138 147 150 163 167 162 156 162 183 198 187 177 181 194 197 203 185 181 223 243 229 282
229 202 205 211 235 266 313 308 262 189 63 266 212 208 148 141 137 140 156 149 142 151 160 157 160 163 167 168 163 171 194 186 174 172 188 201 197 208 185 182 209 247 248 246
277 277 266 284 274 295 301 321 330 63 66 308 297 201 138 152 159 162 169 161 151 148 162 155 157 165 173 175 173 179 184 176 167 176 191 196 186 216 225 219 211 211 228 238
256 301 286 276 279 306 301 312 342 349 358 15 355 272 175 156 169 181 186 177 170 161 170 159 166 174 179 178 180 182 176 167 165 175 188 195 199 204 222 244 237 227 234 222
242 228 230 249 250 250 271 278 281 286 280 203 261 307 215 183 180 179 186 188 173 163 163 159 166 171 174 176 181 187 180 170 166 173 185 196 206 217 224 244 285 276 255 258